Flag for Estonia Weather past 2 weeks in Narva, Estonia

Now
38 °F

Rain showers. Overcast.


Feels Like: 35 °F
Forecast: 37 / 43 °F
Wind: 3 mph from West

Location: Narva

Current Time: Apr 19, 2015 at 7:36:04 PM

Latest Report: Apr 19, 2015 at 6:00 PM


Visibility: 13 mi

Pressure: 29.72 "Hg

Humidity: 90%

Dew point: 35 °F

Location of NarvaLocation

Historic Weather in Narva — Graph

°F

Narva temperature yesterday

Maximum temperature yesterday: 41 °F (at 4:00 PM)
Minimum temperature yesterday: 35 °F (at 3:00 AM)
Average temperature yesterday: 38 °F

Past Weeks' High & Low Weather Summary

 TemperatureHumidityPressure
High67 °F (Apr 12, 2:00 PM)99% (Apr 14, 12:00 AM)30.25 "Hg (Apr 14, 12:00 AM)
Low30 °F (Apr 6, 7:00 AM)29% (Apr 11, 3:00 PM)29.18 "Hg (Apr 16, 5:00 AM)
Average40 °F76%29.80 "Hg
* Reported Apr 4 6:00 PM — Apr 19 6:00 PM, Narva, Weather by CustomWeather, © 2015

Note: Actual official high and low records may vary slightly from our data, if they occured in-between our weather recording intervals... More about our weather records

Advertising

Narva weather history for previous 24 hours

 ConditionsComfort  
Time TempWeatherWind HumidityBarometerVisibility
6:00 PM
Sun, Apr 19
38 °FRain showers. Overcast.3 mph90%29.72 "Hg12 mi
5:00 PM38 °FChilly.3 mph88%29.75 "Hg12 mi
4:00 PM37 °FLow clouds.3 mph87%29.77 "Hg12 mi
3:00 PM35 °FRain showers. Low clouds.2 mph92%29.79 "Hg9 mi
2:00 PM35 °FLight rain. Cloudy.2 mph92%29.81 "Hg4 mi
1:00 PM35 °FLight snow. Cloudy.3 mph93%29.83 "Hg2 mi
12:00 PM36 °FRain showers. Overcast.2 mph83%29.84 "Hg11 mi
11:00 AM35 °FLow clouds.1 mph87%29.85 "Hg12 mi
10:00 AM34 °FLow clouds.3 mph88%29.86 "Hg12 mi
9:00 AM35 °FFreezing rain. Low clouds.3 mph89%29.87 "Hg11 mi
8:00 AM37 °FLight rain. Overcast.2 mph84%29.87 "Hg12 mi
7:00 AM36 °FOvercast.3 mph81%29.89 "Hg12 mi
6:00 AM35 °FOvercast.5 mph78%29.89 "Hg12 mi
5:00 AM34 °FPassing clouds.3 mph84%29.89 "Hg12 mi
4:00 AM33 °FPassing clouds.2 mph84%29.90 "Hg12 mi
3:00 AM34 °FOvercast.3 mph83%29.92 "Hg12 mi
2:00 AM33 °FClear.3 mph83%29.91 "Hg12 mi
1:00 AM34 °FClear.2 mph80%29.91 "Hg12 mi
12:00 AM35 °FClear.3 mph82%29.90 "Hg12 mi
11:00 PM
Sat, Apr 18
35 °FPassing clouds.2 mph85%29.90 "Hg12 mi
10:00 PM35 °FClear.2 mph85%29.90 "Hg11 mi
9:00 PM35 °FPassing clouds.2 mph83%29.90 "Hg6 mi
8:00 PM38 °FSunny.2 mph78%29.90 "Hg12 mi
7:00 PM39 °FSunny.5 mph72%29.89 "Hg12 mi
Weather by CustomWeather, © 2015

See weather overviewHow to use our weather pages